Newark Heath, OH

6:57 AM EDT on August 23, 2017 (GMT -0400)
Newark Heath

Weather History for KVTA - July, 2013

Change the Weather History Date:

Saturday, July 20, 2013

  Actual Average Record
Temperature  
Mean Temperature 73 °F -  
Max Temperature 78 °F 84 °F 98 °F (1980)
Min Temperature 69 °F 64 °F 47 °F (1947)
Cooling Degree Days 8    
Growing Degree Days 23 (Base 50)    
Moisture  
Dew Point 70 °F    
Average Humidity 88    
Maximum Humidity 94    
Minimum Humidity 78    
Precipitation  
Precipitation 0.74 in - - ()
Sea Level Pressure  
Sea Level Pressure 29.90 in    
Wind  
Wind Speed 4 mph (South)    
Max Wind Speed 10 mph    
Max Gust Speed -    
Visibility 7 miles    
Events Rain , Thunderstorm    
Averages and records for this station are not official NWS values.
T = Trace of Precipitation, MM = Missing Value Source: NWS Daily Summary

Daily Weather History Graph

Daily Weather History Graph

Search for Another Location

Airport or City:

Trip Planner

Search our weather history database for the weather conditions in past years. The results will help you decide how hot, cold, wet, or windy it might be!

Date:

Astronomy

Jul. 20, 2013 Rise Set
Actual Time 6:17 AM EDT 8:54 PM EDT
Civil Twilight 5:46 AM EDT 9:25 PM EDT
Nautical Twilight 5:07 AM EDT 10:04 PM EDT
Astronomical Twilight 4:22 AM EDT 10:48 PM EDT
Moon 6:56 PM EDT (7/20) 3:56 AM EDT (7/20)
Length of Visible Light 15h 39m
Length of Day
14h 36m
Waxing Gibbous, 93% of the Moon is Illuminated
Jul 20
Waxing Gibbous
Jul 22
Full
Jul 29
Last Quarter
Aug 6
New
Aug 14
First Quarter

Hourly Weather History & Observations

Time (EDT) Temp. Dew Point Humidity Pressure Visibility Wind Dir Wind Speed Gust Speed Precip Events Conditions
12:54 AM 73.9 °F 70.0 °F 87% 29.90 in 9.0 mi SSW 3.5 mph - N/A   Clear
1:54 AM 73.9 °F 69.1 °F 85% 29.89 in 10.0 mi SSW 5.8 mph - N/A   Scattered Clouds
2:54 AM 73.0 °F 70.0 °F 90% 29.87 in 9.0 mi SSW 3.5 mph - N/A   Clear
3:54 AM 73.9 °F 71.1 °F 91% 29.85 in 8.0 mi SW 5.8 mph - N/A   Clear
4:54 AM 75.0 °F 71.1 °F 87% 29.85 in 7.0 mi Calm Calm - N/A   Clear
5:54 AM 73.9 °F 71.1 °F 91% 29.85 in 7.0 mi South 3.5 mph - N/A   Clear
6:54 AM 73.0 °F 70.0 °F 90% 29.89 in 4.0 mi Calm Calm - N/A   Clear
7:54 AM 75.9 °F 71.1 °F 85% 29.89 in 7.0 mi SW 4.6 mph - N/A   Clear
8:54 AM 77.0 °F 72.0 °F 84% 29.91 in 8.0 mi NNW 5.8 mph - N/A   Overcast
9:04 AM 75.2 °F 69.8 °F 83% 29.93 in 8.0 mi NNE 6.9 mph - N/A   Overcast
9:36 AM 71.6 °F 68.0 °F 88% 29.93 in 1.8 mi ENE 5.8 mph - 0.13 in Rain Heavy Rain
9:46 AM 71.6 °F 68.0 °F 88% 29.93 in 3.0 mi ENE 4.6 mph - 0.16 in Rain Light Rain
9:54 AM 72.0 °F 69.1 °F 91% 29.92 in 8.0 mi NNE 3.5 mph - 0.16 in Rain , Thunderstorm Light Rain
10:03 AM 71.6 °F 69.8 °F 94% 29.93 in 1.8 mi Calm Calm - 0.08 in Rain , Thunderstorm Rain
10:11 AM 71.6 °F 69.8 °F 94% 29.92 in 2.0 mi Calm Calm - 0.10 in Rain Light Rain
10:18 AM 71.6 °F 69.8 °F 94% 29.93 in 3.0 mi Calm Calm - 0.13 in Rain Rain
10:35 AM 73.4 °F 69.8 °F 88% 29.92 in 10.0 mi SSE 3.5 mph - 0.13 in Thunderstorm Mostly Cloudy
10:52 AM 73.4 °F 69.8 °F 88% 29.93 in 10.0 mi SE 3.5 mph - 0.13 in Thunderstorm Scattered Clouds
10:53 AM 73.9 °F 70.0 °F 87% 29.91 in 10.0 mi SSE 3.5 mph - 0.13 in Thunderstorm Scattered Clouds
11:19 AM 75.2 °F 69.8 °F 83% 29.93 in 10.0 mi Calm Calm - N/A   Overcast
11:41 AM 73.4 °F 69.8 °F 88% 29.93 in 2.0 mi NNE 3.5 mph - 0.07 in Rain Light Rain
11:45 AM 73.4 °F 71.6 °F 94% 29.93 in 3.0 mi NNE 3.5 mph - 0.08 in Rain , Thunderstorm Rain
11:54 AM 73.0 °F 70.0 °F 90% 29.91 in 4.0 mi NNE 4.6 mph - 0.09 in Rain , Thunderstorm Light Rain
11:59 AM 73.4 °F 69.8 °F 88% 29.95 in 3.0 mi WNW 5.8 mph - 0.05 in Rain Rain
12:02 PM 73.4 °F 69.8 °F 88% 29.95 in 1.8 mi NNW 10.4 mph - 0.12 in Rain Heavy Rain
12:07 PM 71.6 °F 66.2 °F 83% 29.94 in 1.0 mi NNW 8.1 mph - 0.21 in Rain , Thunderstorm Heavy Rain
12:15 PM 69.8 °F 66.2 °F 88% 29.92 in 2.5 mi ENE 4.6 mph - 0.23 in Rain , Thunderstorm Light Thunderstorms and Rain
12:22 PM 71.6 °F 68.0 °F 88% 29.92 in 10.0 mi Variable 3.5 mph - 0.23 in Rain , Thunderstorm Light Thunderstorms and Rain
12:44 PM 71.6 °F 68.0 °F 88% 29.93 in 2.0 mi South 3.5 mph - 0.28 in Rain Rain
12:51 PM 71.6 °F 68.0 °F 88% 29.92 in 1.5 mi SE 4.6 mph - 0.31 in Rain Light Rain
12:54 PM 72.0 °F 69.1 °F 91% 29.90 in 3.0 mi ESE 4.6 mph - 0.31 in Rain Light Rain
1:54 PM 73.9 °F 71.1 °F 91% 29.88 in 10.0 mi SSW 6.9 mph - 0.00 in Rain Light Rain
2:51 PM 75.2 °F 71.6 °F 89% 29.89 in 10.0 mi Variable 3.5 mph - 0.05 in   Scattered Clouds
2:54 PM 75.0 °F 71.1 °F 87% 29.87 in 10.0 mi Calm Calm - 0.05 in   Partly Cloudy
3:09 PM 75.2 °F 71.6 °F 89% 29.89 in 10.0 mi Calm Calm - N/A   Mostly Cloudy
3:22 PM 75.2 °F 71.6 °F 89% 29.89 in 10.0 mi WNW 3.5 mph - N/A   Overcast
3:39 PM 75.2 °F 69.8 °F 83% 29.89 in 10.0 mi WNW 4.6 mph - N/A   Scattered Clouds
3:51 PM 77.0 °F 69.8 °F 78% 29.88 in 10.0 mi Calm Calm - N/A   Mostly Cloudy
3:54 PM 77.0 °F 71.1 °F 82% 29.86 in 10.0 mi North - - N/A   Mostly Cloudy
4:05 PM 77.0 °F 69.8 °F 78% 29.88 in 10.0 mi Calm Calm - N/A   Scattered Clouds
4:54 PM 77.0 °F 71.1 °F 82% 29.88 in 10.0 mi SSE 5.8 mph - N/A   Clear
5:54 PM 77.0 °F 70.0 °F 79% 29.88 in 10.0 mi SSW 3.5 mph - N/A   Mostly Cloudy
6:54 PM 75.0 °F 69.1 °F 82% 29.88 in 10.0 mi NNW 3.5 mph - N/A   Mostly Cloudy
7:54 PM 73.9 °F 71.1 °F 91% 29.87 in 10.0 mi Calm Calm - N/A   Clear
8:54 PM 73.9 °F 70.0 °F 87% 29.88 in 10.0 mi Calm Calm - N/A   Clear
9:54 PM 73.0 °F 71.1 °F 93% 29.91 in 10.0 mi SSW 4.6 mph - N/A   Clear
10:54 PM 73.0 °F 70.0 °F 90% 29.93 in 10.0 mi SSW 6.9 mph - N/A   Overcast
11:54 PM 71.1 °F 69.1 °F 93% 29.93 in 10.0 mi Calm Calm - N/A   Partly Cloudy